Guernsey, United Kingdom

9:42 AM BST on August 19, 2017 (GMT +0100)
Guernsey

Weather History for EGJB - September, 2013

Change the Weather History Date:

Friday, September 20, 2013

  Actual Average Record
Temperature  
Mean Temperature 57 °F -  
Max Temperature 62 °F 59 °F 75 °F (2003)
Min Temperature 52 °F 52 °F 50 °F (2012)
Degree Days  
Heating Degree Days 8    
Growing Degree Days 7 (Base 50)    
Moisture  
Dew Point 52 °F    
Average Humidity 84    
Maximum Humidity 100    
Minimum Humidity 67    
Precipitation  
Precipitation 0.00 in - - ()
Sea Level Pressure  
Sea Level Pressure 30.13 in    
Wind  
Wind Speed 6 mph ()    
Max Wind Speed 10 mph    
Max Gust Speed -    
Visibility 7.8 miles    
Events      
Averages and records for this station are not official NWS values.
T = Trace of Precipitation, MM = Missing Value Source: Averaged Metar Reports

Daily Weather History Graph

Daily Weather History Graph

Search for Another Location

Airport or City:

Trip Planner

Search our weather history database for the weather conditions in past years. The results will help you decide how hot, cold, wet, or windy it might be!

Date:

Astronomy

Sep. 20, 2013 Rise Set
Actual Time 6:53 AM BST 7:12 PM BST
Civil Twilight 6:22 AM BST 7:44 PM BST
Nautical Twilight 5:44 AM BST 8:22 PM BST
Astronomical Twilight 5:04 AM BST 9:01 PM BST
Moon 7:25 PM BST (9/20) 8:02 AM BST (9/20)
Length of Visible Light 13h 22m
Length of Day
12h 18m
Full, 99% of the Moon is Illuminated
Sep 20
Full
Sep 27
Last Quarter
Oct 5
New
Oct 12
First Quarter
Oct 19
Full

Hourly Weather History & Observations

Time (BST) Temp. Dew Point Humidity Pressure Visibility Wind Dir Wind Speed Gust Speed Precip Events Conditions
1:00 AM 56 °F 55 °F 95% 30.02 in 16 mi West 10.4 mph - -   Partly Cloudy
3:50 AM 55.4 °F 53.6 °F 94% 30.04 in 6.2 mi NW 6.9 mph - N/A   Partly Cloudy
4:00 AM 56 °F 53 °F 88% 30.05 in 19 mi NW 6.9 mph - -   Scattered Clouds
4:20 AM 55.4 °F 53.6 °F 94% 30.04 in 6.2 mi NW 8.1 mph - N/A   Partly Cloudy
4:50 AM 55.4 °F 53.6 °F 94% 30.04 in 6.2 mi WNW 5.8 mph - N/A   Scattered Clouds
5:20 AM 53.6 °F 51.8 °F 94% 30.04 in 6.2 mi NW 3.5 mph - N/A   Partly Cloudy
5:50 AM 53.6 °F 51.8 °F 94% 30.06 in 6.2 mi NW 3.5 mph - N/A   Partly Cloudy
6:20 AM 51.8 °F 51.8 °F 100% 30.06 in 6.2 mi West 3.5 mph - N/A   Partly Cloudy
6:50 AM 53.6 °F 51.8 °F 94% 30.06 in 6.2 mi West 4.6 mph - N/A   Scattered Clouds
7:00 AM 53 °F 52 °F 94% 30.09 in 16 mi West 4.6 mph - -   Partly Cloudy
7:20 AM 53.6 °F 53.6 °F 100% 30.09 in 6.2 mi West 5.8 mph - N/A   Scattered Clouds
7:50 AM 55.4 °F 53.6 °F 94% 30.09 in 6.2 mi WNW 5.8 mph - N/A   Partly Cloudy
8:20 AM 57.2 °F 53.6 °F 88% 30.09 in 6.2 mi WNW 5.8 mph - N/A   Partly Cloudy
8:50 AM 59.0 °F 53.6 °F 82% 30.09 in 6.2 mi NW 6.9 mph - N/A   Scattered Clouds
9:20 AM 57.2 °F 53.6 °F 88% 30.09 in 6.2 mi WNW 8.1 mph - N/A   Scattered Clouds
9:50 AM 59.0 °F 53.6 °F 82% 30.12 in 6.2 mi NW 9.2 mph - N/A   Mostly Cloudy
10:00 AM 58 °F 53 °F 80% 30.13 in 16 mi NW 9.2 mph - -   Mostly Cloudy
10:20 AM 59.0 °F 53.6 °F 82% 30.12 in 6.2 mi NW 6.9 mph - N/A   Mostly Cloudy
10:50 AM 59.0 °F 53.6 °F 82% 30.12 in 6.2 mi WNW 10.4 mph - N/A   Mostly Cloudy
11:20 AM 59.0 °F 51.8 °F 77% 30.12 in 6.2 mi NW 8.1 mph - N/A   Mostly Cloudy
11:50 AM 59.0 °F 51.8 °F 77% 30.15 in 6.2 mi WNW 8.1 mph - N/A   Mostly Cloudy
12:20 PM 59.0 °F 51.8 °F 77% 30.15 in 6.2 mi WNW 9.2 mph - N/A   Mostly Cloudy
12:50 PM 59.0 °F 51.8 °F 77% 30.15 in 6.2 mi WNW 8.1 mph - N/A   Mostly Cloudy
1:00 PM 60 °F 52 °F 67% 30.17 in 19 mi WNW 8.1 mph - -   Mostly Cloudy
1:20 PM 59.0 °F 51.8 °F 77% 30.15 in 6.2 mi West 8.1 mph - N/A   Mostly Cloudy
1:50 PM 59.0 °F 53.6 °F 82% 30.15 in 6.2 mi NNW 8.1 mph - N/A   Mostly Cloudy
2:20 PM 59.0 °F 51.8 °F 77% 30.18 in 6.2 mi NNW 6.9 mph - N/A   Mostly Cloudy
2:50 PM 60.8 °F 51.8 °F 72% 30.15 in 6.2 mi Variable 3.5 mph - N/A   Mostly Cloudy
3:20 PM 62.6 °F 53.6 °F 72% 30.15 in 6.2 mi West 4.6 mph - N/A   Scattered Clouds
3:50 PM 62.6 °F 51.8 °F 68% 30.15 in 6.2 mi West 4.6 mph - N/A   Partly Cloudy
4:20 PM 60.8 °F 51.8 °F 72% 30.15 in 6.2 mi West 4.6 mph - N/A   Partly Cloudy
4:50 PM 59.0 °F 51.8 °F 77% 30.18 in 6.2 mi West 5.8 mph - N/A   Mostly Cloudy
5:20 PM 59.0 °F 51.8 °F 77% 30.18 in 6.2 mi West 9.2 mph - N/A   Mostly Cloudy
5:50 PM 57.2 °F 51.8 °F 82% 30.18 in 6.2 mi West 8.1 mph - N/A   Mostly Cloudy
6:20 PM 57.2 °F 51.8 °F 82% 30.18 in 6.2 mi West 6.9 mph - N/A   Mostly Cloudy
6:50 PM 57.2 °F 51.8 °F 82% 30.21 in 6.2 mi West 6.9 mph - N/A   Scattered Clouds
7:00 PM 57 °F 51 °F 74% 30.21 in 14 mi West 6.9 mph - -   Partly Cloudy
7:20 PM 55.4 °F 50.0 °F 82% 30.21 in 6.2 mi West 3.5 mph - N/A   Partly Cloudy
7:50 PM 53.6 °F 50.0 °F 88% 30.21 in 6.2 mi WSW 2.3 mph - N/A   Partly Cloudy
8:20 PM 53.6 °F 50.0 °F 88% 30.21 in 6.2 mi WSW 2.3 mph - N/A   Partly Cloudy
8:50 PM 53.6 °F 50.0 °F 88% 30.21 in 6.2 mi WSW 3.5 mph - N/A   Partly Cloudy
9:20 PM 53.6 °F 50.0 °F 88% 30.21 in - West 4.6 mph - N/A   Clear
10:00 PM 53 °F 50 °F 87% 30.24 in 11 mi WSW 3.5 mph - -   Clear